SERVIS 1

Satellite information

Favourite Embed

Satellite Type and Status

PAYLOADIN ORBIT

Key statistics

Satellite SERVIS 1 at a glance.

Uptime

8081

Days in orbit

Revolutions

≈ 13.7

Per day

Orbit

SSO

Sun Synchronous Orbit

Inclination

99.5

Latest

Satellite identification and parameters

Extended collection of information and parameters for SERVIS 1.

Object identification

Identified? True

Debris? False

Object name: SERVIS 1

International designator: 2003-050A

Object number (NORAD): 28060

Object ID (CCSDS): 28060

Country: JAPAN (JPN)

Current information (Y/N): Y

RCS size: LARGE

Orbital parameters

Period: 104.945 minutes

Inclination: 99.4989 deg

SMA: 7369.993 km

Apoapsis: 1007.453 km

Periapsis: 976.263 km

RAAN: 342.9483 deg

Eccentricy: 0.00211601

Argument of periapsis: 205.9903 deg

Mean anomaly: 266.0743 deg

Mean motion: 13.72151865 rev/day

Mean motion (dot): 0.00000076 rev/day2

B* drag term: 0.00013264951 1/REarth

Two-line elements (TLE)

Creation date: Dec. 14, 2025, 3:07 a.m.

Reference frame: TEME

Reference center: EARTH

Epoch: Dec. 13, 2025, 12:24 p.m. UTC

TLE line 0: 0 SERVIS 1

TLE line 1: 1 28060U 03050A 25347.51720421 .00000076 00000-0 13265-3 0 9990

TLE line 2: 2 28060 99.4989 342.9483 0021160 205.9903 266.0743 13.72151865107495

Live tracking on map

Real-time ground track for satellite SERVIS 1.

In-orbit conjunctions

A list of the most updated potential collisions computed for object SERVIS 1.

Target Orbit TCA Probability of collision Miss distance Type
ARIANE 44LP DEB MEO 2025-09-17 01:35:35 0.0004765276 374.0 (m) DEBRIS
FENGYUN 1C DEB SSO 2025-08-15 06:04:50 0.0001019661 924.0 (m) DEBRIS
COSMOS 1275 DEB LEO 2024-10-27 14:13:37 0.0001669095 479.0 (m) DEBRIS
SL-8 R/B LEO 2024-08-05 13:06:41 0.01846261 19.0 (m) ROCKET BODY

Associated space launch

SERVIS-1, or Space Environment Reliability Verification Integrated System 1, is a Japanese satellite designed for testing the performance of commercial off-the-shelf products in the space environment.

SERVIS 1 was lifted into orbit during the mission ‘Rokot / Briz-KM | SERVIS-1’, on board a Rokot/Briz-KM space rocket.

The launch took place on Oct. 30, 2003, 1:43 p.m. from 133/3 (133L).

For more information about the launch, click the button.

Launch to space Rokot / Briz-KM | SERVIS-1
Rokot / Briz-KM | SERVIS-1

Agency: N/A

Status: Launch Successful

Launch date: Oct. 30, 2003, 1:43 p.m. UTC

Rocket: Rokot/Briz-KM

Launch pad: 133/3 (133L)

Location: Plesetsk Cosmodrome, Russian Federation

...

Latest news about this satellite

There are no fresh news available about this satellite. Check back as we update our databases every day.


Newsletter sign-up

Weekly statistics, charts and insights to help you stay on top of the space industry.